Weather History for Moses Lake, WA

Change the Weather History Date:

Friday, July 12, 2013

  Actual Average Record
Temperature  
Mean Temperature 70 °F 72 °F  
Max Temperature 81 °F 89 °F 106 °F (2002)
Min Temperature 58 °F 56 °F 38 °F (1981)
Degree Days  
Heating Degree Days 0 0  
Month to date heating degree days 0 6  
Since 1 June heating degree days 49 61  
Since 1 July heating degree days 0 6  
Cooling Degree Days 5 7  
Month to date cooling degree days 148 77  
Year to date cooling degree days 306 187  
Since 1 June cooling degree days 256 162  
Growing Degree Days 20 (Base 50)    
Moisture  
Dew Point 31 °F    
Average Humidity 28    
Maximum Humidity 43    
Minimum Humidity 13    
Precipitation  
Precipitation 0.00 in 0.01 in 0.03 in (1982)
Month to date precipitation 0.00 0.19  
Year to date precipitation 3.75 4.96  
Sea Level Pressure  
Sea Level Pressure 29.89 in    
Wind  
Wind Speed 8 mph (WNW)    
Max Wind Speed 25 mph    
Max Gust Speed 32 mph    
Visibility 10 miles    
Events      
T = Trace of Precipitation, MM = Missing Value Source: NWS Daily Summary

Daily Weather History Graph

Daily Weather History Graph

Search for Another Location

Airport:

Trip Planner

Search our weather history database for the weather conditions in past years. The results will help you decide how hot, cold, wet, or windy it might be!

Date:

Astronomy

Jul. 12, 2013 Rise Set
Actual Time 5:14 AM PDT 8:51 PM PDT
Civil Twilight 4:35 AM PDT 9:29 PM PDT
Nautical Twilight 3:43 AM PDT 10:21 PM PDT
Astronomical Twilight 2:32 AM PDT 11:31 PM PDT
Moon 9:56 AM PDT (7/12) 10:40 PM PDT (7/12)
Length of Visible Light 16h 54m
Length of Day
15h 37m
Waxing Crescent, 18% of the Moon is Illuminated
Jul 12
Waxing Crescent
Jul 15
First Quarter
Jul 22
Full
Jul 29
Last Quarter
Aug 6
New

Hourly Weather History & Observations

Time (PDT) Temp. Dew Point Humidity Pressure Visibility Wind Dir Wind Speed Gust Speed Precip Events Conditions
12:52 AM 66.0 °F 32.0 °F 28% 29.85 in 10.0 mi NNW 10.4 mph - N/A   Clear
1:52 AM 66.0 °F 30.9 °F 27% 29.85 in 10.0 mi NNW 8.1 mph - N/A   Clear
2:52 AM 64.9 °F 32.0 °F 29% 29.86 in 10.0 mi NW 9.2 mph - N/A   Clear
3:52 AM 64.0 °F 32.0 °F 30% 29.87 in 10.0 mi WNW 8.1 mph - N/A   Clear
4:52 AM 62.1 °F 30.9 °F 31% 29.88 in 10.0 mi WNW 9.2 mph - N/A   Clear
5:52 AM 60.1 °F 32.0 °F 35% 29.89 in 10.0 mi WNW 9.2 mph - N/A   Clear
6:52 AM 61.0 °F 32.0 °F 34% 29.90 in 10.0 mi WNW 10.4 mph - N/A   Clear
7:52 AM 69.1 °F 33.1 °F 26% 29.89 in 10.0 mi North 8.1 mph - N/A   Clear
8:52 AM 70.0 °F 33.1 °F 26% 29.90 in 10.0 mi North 10.4 mph - N/A   Clear
9:52 AM 72.0 °F 32.0 °F 23% 29.90 in 10.0 mi Variable 3.5 mph - N/A   Clear
10:52 AM 75.0 °F 28.9 °F 18% 29.89 in 10.0 mi Variable 3.5 mph - N/A   Clear
11:52 AM 75.9 °F 28.9 °F 18% 29.89 in 10.0 mi WSW 8.1 mph - N/A   Clear
12:52 PM 75.9 °F 32.0 °F 20% 29.89 in 10.0 mi SSW 8.1 mph - N/A   Clear
1:52 PM 78.1 °F 28.0 °F 16% 29.89 in 10.0 mi SW 6.9 mph - N/A   Clear
2:52 PM 79.0 °F 25.0 °F 14% 29.88 in 10.0 mi West 9.2 mph - N/A   Clear
3:52 PM 78.1 °F 24.1 °F 14% 29.88 in 10.0 mi WSW 4.6 mph - N/A   Clear
4:52 PM 78.1 °F 27.0 °F 15% 29.88 in 10.0 mi NNW 10.4 mph 19.6 mph N/A   Clear
5:52 PM 79.0 °F 28.0 °F 15% 29.88 in 10.0 mi NW 12.7 mph 18.4 mph N/A   Clear
6:52 PM 75.0 °F 32.0 °F 21% 29.89 in 10.0 mi NW 18.4 mph 26.5 mph N/A   Scattered Clouds
7:52 PM 73.0 °F 32.0 °F 22% 29.90 in 10.0 mi NW 9.2 mph - N/A   Clear
8:52 PM 68.0 °F 30.9 °F 25% 29.91 in 10.0 mi WNW 5.8 mph - N/A   Clear
9:52 PM 64.0 °F 33.1 °F 31% 29.94 in 10.0 mi NW 8.1 mph - N/A   Clear
10:52 PM 62.1 °F 35.1 °F 37% 29.95 in 10.0 mi West 4.6 mph - N/A   Scattered Clouds
11:52 PM 57.9 °F 36.0 °F 44% 29.97 in 10.0 mi NW 4.6 mph - N/A   Clear